This is the latest recevied weather packets stored in our database for station/object N0LTM. If no packets are shown the sender has not sent any weather packets the latest 10 day(s).
| Time | Temp. | Humidity | Pressure | Rain* | Wind** | Luminosity | Snow |
|---|---|---|---|---|---|---|---|
| 1777990558 | 10.56° C | 48% | 1009.1 hPa | 0 mm | - | - | - |
| 1777986960 | 8.89° C | 42% | 1009.5 hPa | 0 mm | - | - | - |
| 1777986062 | 8.89° C | 48% | 1009.4 hPa | 0 mm | - | - | - |
| 1777982155 | 8.33° C | 50% | 1008.8 hPa | 0 mm | - | - | - |
| 1777980352 | 8.33° C | 49% | 1008.3 hPa | 0 mm | - | - | - |
| 1777979458 | 8.89° C | 46% | 1007.8 hPa | 0 mm | - | - | - |
| 1777978865 | 8.89° C | 46% | 1007.2 hPa | 0 mm | - | - | - |
| 1777978255 | 8.89° C | 46% | 1007.5 hPa | 0 mm | - | - | - |
| 1777977653 | 8.89° C | 47% | 1007.8 hPa | 0 mm | - | - | - |
| 1777976752 | 8.89° C | 48% | 1008.2 hPa | 0 mm | - | - | - |
| 1777974959 | 8.89° C | 47% | 1006.2 hPa | 0 mm | - | - | - |
| 1777971353 | 10° C | 47% | 1005.9 hPa | 0 mm | - | - | - |
| 1777969552 | 10.56° C | 44% | 1005.3 hPa | 0 mm | - | - | - |
| 1777968965 | 11.11° C | 44% | 1005.2 hPa | 0 mm | - | - | - |
| 1777968652 | 11.11° C | 45% | 1004.9 hPa | 0 mm | - | - | - |
| 1777965952 | 12.22° C | 44% | 1004 hPa | 0 mm | - | - | - |
| 1777963251 | 12.78° C | 42% | 1003.3 hPa | 0 mm | - | - | - |
| 1777962952 | 12.78° C | 42% | 1003.3 hPa | 0 mm | - | - | - |
| 1777960856 | 13.33° C | 41% | 1003.1 hPa | 0 mm | - | - | - |
| 1777960556 | 13.33° C | 41% | 1003.1 hPa | 0 mm | - | - | - |
| 1777959976 | 13.33° C | 40% | 1003 hPa | 0 mm | - | - | - |
| 1777959059 | 13.33° C | 40% | 1002.8 hPa | 0 mm | - | - | - |
| 1777958456 | 13.33° C | 40% | 1002.9 hPa | 0 mm | - | - | - |
| 1777957853 | 13.89° C | 40% | 1002.8 hPa | 0 mm | - | - | - |
| 1777952156 | 16.67° C | 37% | 1001.9 hPa | 0 mm | - | - | - |
* Rain latest hour (hover to see other rain measurements)
** Current wind speed in m/s (hover to see current wind gust speed)